Year,Month,Day,Hour,Minute,Value (Times are PST for temperature in C)
2016,03,28,00,00,4.80
2016,03,28,00,01,4.80
2016,03,28,00,02,4.70
2016,03,28,00,03,4.70
2016,03,28,00,04,4.70
2016,03,28,00,05,4.70
2016,03,28,00,06,4.60
2016,03,28,00,07,4.60
2016,03,28,00,08,4.60
2016,03,28,00,09,4.60
2016,03,28,00,10,4.60
2016,03,28,00,11,4.60
2016,03,28,00,12,4.60
2016,03,28,00,13,4.60
2016,03,28,00,14,4.50
2016,03,28,00,15,4.50
2016,03,28,00,16,4.50
2016,03,28,00,17,4.50
2016,03,28,00,18,4.40
2016,03,28,00,19,4.40
2016,03,28,00,20,4.40
2016,03,28,00,21,4.40
2016,03,28,00,22,4.40
2016,03,28,00,23,4.40
2016,03,28,00,24,4.40
2016,03,28,00,25,4.40
2016,03,28,00,26,4.40
2016,03,28,00,27,4.40
2016,03,28,00,28,4.30
2016,03,28,00,29,4.30
2016,03,28,00,30,4.30
2016,03,28,00,31,4.30
2016,03,28,00,32,4.30
2016,03,28,00,33,4.30
2016,03,28,00,34,4.20
2016,03,28,00,35,4.20
2016,03,28,00,36,4.20
2016,03,28,00,37,4.20
2016,03,28,00,38,4.20
2016,03,28,00,39,4.20
2016,03,28,00,40,4.20
2016,03,28,00,41,4.20
2016,03,28,00,42,4.20
2016,03,28,00,43,4.20
2016,03,28,00,44,4.20
2016,03,28,00,45,4.20
2016,03,28,00,46,4.20
2016,03,28,00,47,4.20
2016,03,28,00,48,4.20
2016,03,28,00,49,4.20
2016,03,28,00,50,4.10
2016,03,28,00,51,4.10
2016,03,28,00,52,4.10
2016,03,28,00,53,4.10
2016,03,28,00,54,4.00
2016,03,28,00,55,4.00
2016,03,28,00,56,4.00
2016,03,28,00,57,3.90
2016,03,28,00,58,3.90
2016,03,28,00,59,3.90
2016,03,28,01,00,3.90
2016,03,28,01,01,3.90
2016,03,28,01,02,3.90
2016,03,28,01,03,3.90
2016,03,28,01,04,3.90
2016,03,28,01,05,3.90
2016,03,28,01,06,3.90
2016,03,28,01,07,3.90
2016,03,28,01,08,3.90
2016,03,28,01,09,3.90
2016,03,28,01,10,3.90
2016,03,28,01,11,3.90
2016,03,28,01,12,3.80
2016,03,28,01,13,3.80
2016,03,28,01,14,3.80
2016,03,28,01,15,3.70
2016,03,28,01,16,3.70
2016,03,28,01,17,3.70
2016,03,28,01,18,3.70
2016,03,28,01,19,3.70
2016,03,28,01,20,3.70
2016,03,28,01,21,3.70
2016,03,28,01,22,3.80
2016,03,28,01,23,3.80
2016,03,28,01,24,3.80
2016,03,28,01,25,3.70
2016,03,28,01,26,3.70
2016,03,28,01,27,3.70
2016,03,28,01,28,3.60
2016,03,28,01,29,3.60
2016,03,28,01,30,3.60
2016,03,28,01,31,3.60
2016,03,28,01,32,3.60
2016,03,28,01,33,3.60
2016,03,28,01,34,3.70
2016,03,28,01,35,3.70
2016,03,28,01,36,3.70
2016,03,28,01,37,3.70
2016,03,28,01,38,3.70
2016,03,28,01,39,3.70
2016,03,28,01,40,3.70
2016,03,28,01,41,3.70
2016,03,28,01,42,3.70
2016,03,28,01,43,3.70
2016,03,28,01,44,3.70
2016,03,28,01,45,3.70
2016,03,28,01,46,3.70
2016,03,28,01,47,3.60
2016,03,28,01,48,3.60
2016,03,28,01,49,3.60
2016,03,28,01,50,3.60
2016,03,28,01,51,3.60
2016,03,28,01,52,3.50
2016,03,28,01,53,3.50
2016,03,28,01,54,3.50
2016,03,28,01,55,3.40
2016,03,28,01,56,3.40
2016,03,28,01,57,3.40
2016,03,28,01,58,3.40
2016,03,28,01,59,3.30
2016,03,28,02,00,3.30
2016,03,28,02,01,3.30
2016,03,28,02,02,3.30
2016,03,28,02,03,3.40
2016,03,28,02,04,3.40
2016,03,28,02,05,3.40
2016,03,28,02,06,3.40
2016,03,28,02,07,3.40
2016,03,28,02,08,3.40
2016,03,28,02,09,3.40
2016,03,28,02,10,3.40
2016,03,28,02,11,3.50
2016,03,28,02,12,3.50
2016,03,28,02,13,3.40
2016,03,28,02,14,3.40
2016,03,28,02,15,3.40
2016,03,28,02,16,3.40
2016,03,28,02,17,3.40
2016,03,28,02,18,3.30
2016,03,28,02,19,3.30
2016,03,28,02,20,3.30
2016,03,28,02,21,3.30
2016,03,28,02,22,3.30
2016,03,28,02,23,3.30
2016,03,28,02,24,3.30
2016,03,28,02,25,3.30
2016,03,28,02,26,3.40
2016,03,28,02,27,3.40
2016,03,28,02,28,3.40
2016,03,28,02,29,3.40
2016,03,28,02,30,3.40
2016,03,28,02,31,3.40
2016,03,28,02,32,3.40
2016,03,28,02,33,3.40
2016,03,28,02,34,3.40
2016,03,28,02,35,3.40
2016,03,28,02,36,3.40
2016,03,28,02,37,3.40
2016,03,28,02,38,3.40
2016,03,28,02,39,3.40
2016,03,28,02,40,3.40
2016,03,28,02,41,3.50
2016,03,28,02,42,3.50
2016,03,28,02,43,3.50
2016,03,28,02,44,3.50
2016,03,28,02,45,3.50
2016,03,28,02,46,3.50
2016,03,28,02,47,3.50
2016,03,28,02,48,3.50
2016,03,28,02,49,3.50
2016,03,28,02,50,3.40
2016,03,28,02,51,3.40
2016,03,28,02,52,3.40
2016,03,28,02,53,3.40
2016,03,28,02,54,3.40
2016,03,28,02,55,3.40
2016,03,28,02,56,3.40
2016,03,28,02,57,3.40
2016,03,28,02,58,3.50
2016,03,28,02,59,3.50
2016,03,28,03,00,3.60
2016,03,28,03,01,3.60
2016,03,28,03,02,3.60
2016,03,28,03,03,3.60
2016,03,28,03,04,3.70
2016,03,28,03,05,3.70
2016,03,28,03,06,3.70
2016,03,28,03,07,3.70
2016,03,28,03,08,3.70
2016,03,28,03,09,3.70
2016,03,28,03,10,3.70
2016,03,28,03,11,3.70
2016,03,28,03,12,3.70
2016,03,28,03,13,3.70
2016,03,28,03,14,3.70
2016,03,28,03,15,3.70
2016,03,28,03,16,3.70
2016,03,28,03,17,3.70
2016,03,28,03,18,3.70
2016,03,28,03,19,3.70
2016,03,28,03,20,3.70
2016,03,28,03,21,3.70
2016,03,28,03,22,3.70
2016,03,28,03,23,3.70
2016,03,28,03,24,3.70
2016,03,28,03,25,3.70
2016,03,28,03,26,3.70
2016,03,28,03,27,3.80
2016,03,28,03,28,3.80
2016,03,28,03,29,3.80
2016,03,28,03,30,3.80
2016,03,28,03,31,3.80
2016,03,28,03,32,3.80
2016,03,28,03,33,3.80
2016,03,28,03,34,3.80
2016,03,28,03,35,3.80
2016,03,28,03,36,3.80
2016,03,28,03,37,3.80
2016,03,28,03,38,3.80
2016,03,28,03,39,3.80
2016,03,28,03,40,3.80
2016,03,28,03,41,3.80
2016,03,28,03,42,3.80
2016,03,28,03,43,3.80
2016,03,28,03,44,3.80
2016,03,28,03,45,3.80
2016,03,28,03,46,3.80
2016,03,28,03,47,3.80
2016,03,28,03,48,3.80
2016,03,28,03,49,3.80
2016,03,28,03,50,3.80
2016,03,28,03,51,3.80
2016,03,28,03,52,3.80
2016,03,28,03,53,3.80
2016,03,28,03,54,3.80
2016,03,28,03,55,3.80
2016,03,28,03,56,3.80
2016,03,28,03,57,3.80
2016,03,28,03,58,3.70
2016,03,28,03,59,3.70
2016,03,28,04,00,3.70
2016,03,28,04,01,3.70
2016,03,28,04,02,3.70
2016,03,28,04,03,3.70
2016,03,28,04,04,3.70
2016,03,28,04,05,3.70
2016,03,28,04,06,3.70
2016,03,28,04,07,3.70
2016,03,28,04,08,3.70
2016,03,28,04,09,3.70
2016,03,28,04,10,3.70
2016,03,28,04,11,3.60
2016,03,28,04,12,3.60
2016,03,28,04,13,3.60
2016,03,28,04,14,3.60
2016,03,28,04,15,3.60
2016,03,28,04,16,3.60
2016,03,28,04,17,3.60
2016,03,28,04,18,3.60
2016,03,28,04,19,3.60
2016,03,28,04,20,3.60
2016,03,28,04,21,3.60
2016,03,28,04,22,3.60
2016,03,28,04,23,3.50
2016,03,28,04,24,3.50
2016,03,28,04,25,3.50
2016,03,28,04,26,3.50
2016,03,28,04,27,3.40
2016,03,28,04,28,3.40
2016,03,28,04,29,3.40
2016,03,28,04,30,3.40
2016,03,28,04,31,3.40
2016,03,28,04,32,3.40
2016,03,28,04,33,3.40
2016,03,28,04,34,3.40
2016,03,28,04,35,3.40
2016,03,28,04,36,3.40
2016,03,28,04,37,3.40
2016,03,28,04,38,3.40
2016,03,28,04,39,3.40
2016,03,28,04,40,3.30
2016,03,28,04,41,3.30
2016,03,28,04,42,3.30
2016,03,28,04,43,3.30
2016,03,28,04,44,3.30
2016,03,28,04,45,3.20
2016,03,28,04,46,3.20
2016,03,28,04,47,3.20
2016,03,28,04,48,3.20
2016,03,28,04,49,3.20
2016,03,28,04,50,3.10
2016,03,28,04,51,3.10
2016,03,28,04,52,3.10
2016,03,28,04,53,3.10
2016,03,28,04,54,3.10
2016,03,28,04,55,3.00
2016,03,28,04,56,3.00
2016,03,28,04,57,3.00
2016,03,28,04,58,3.00
2016,03,28,04,59,2.90
2016,03,28,05,00,2.90
2016,03,28,05,01,2.90
2016,03,28,05,02,2.90
2016,03,28,05,03,2.80
2016,03,28,05,04,2.80
2016,03,28,05,05,2.80
2016,03,28,05,06,2.80
2016,03,28,05,07,2.80
2016,03,28,05,08,2.80
2016,03,28,05,09,2.80
2016,03,28,05,10,2.80
2016,03,28,05,11,2.80
2016,03,28,05,12,2.80
2016,03,28,05,13,2.80
2016,03,28,05,14,2.80
2016,03,28,05,15,2.80
2016,03,28,05,16,2.80
2016,03,28,05,17,2.80
2016,03,28,05,18,2.80
2016,03,28,05,19,2.80
2016,03,28,05,20,2.70
2016,03,28,05,21,2.70
2016,03,28,05,22,2.70
2016,03,28,05,23,2.70
2016,03,28,05,24,2.70
2016,03,28,05,25,2.70
2016,03,28,05,26,2.70
2016,03,28,05,27,2.70
2016,03,28,05,28,2.70
2016,03,28,05,29,2.70
2016,03,28,05,30,2.70
2016,03,28,05,31,2.70
2016,03,28,05,32,2.60
2016,03,28,05,33,2.60
2016,03,28,05,34,2.60
2016,03,28,05,35,2.60
2016,03,28,05,36,2.60
2016,03,28,05,37,2.60
2016,03,28,05,38,2.50
2016,03,28,05,39,2.50
2016,03,28,05,40,2.50
2016,03,28,05,41,2.50
2016,03,28,05,42,2.50
2016,03,28,05,43,2.40
2016,03,28,05,44,2.40
2016,03,28,05,45,2.40
2016,03,28,05,46,2.40
2016,03,28,05,47,2.40
2016,03,28,05,48,2.40
2016,03,28,05,49,2.40
2016,03,28,05,50,2.40
2016,03,28,05,51,2.40
2016,03,28,05,52,2.30
2016,03,28,05,53,2.30
2016,03,28,05,54,2.30
2016,03,28,05,55,2.30
2016,03,28,05,56,2.30
2016,03,28,05,57,2.30
2016,03,28,05,58,2.30
2016,03,28,05,59,2.40
2016,03,28,06,00,2.40
2016,03,28,06,01,2.40
2016,03,28,06,02,2.40
2016,03,28,06,03,2.40
2016,03,28,06,04,2.40
2016,03,28,06,05,2.40
2016,03,28,06,06,2.40
2016,03,28,06,07,2.50
2016,03,28,06,08,2.50
2016,03,28,06,09,2.50
2016,03,28,06,10,2.60
2016,03,28,06,11,2.60
2016,03,28,06,12,2.60
2016,03,28,06,13,2.70
2016,03,28,06,14,2.70
2016,03,28,06,15,2.70
2016,03,28,06,16,2.70
2016,03,28,06,17,2.70
2016,03,28,06,18,2.70
2016,03,28,06,19,2.70
2016,03,28,06,20,2.70
2016,03,28,06,21,2.70
2016,03,28,06,22,2.70
2016,03,28,06,23,2.70
2016,03,28,06,24,2.70
2016,03,28,06,25,2.70
2016,03,28,06,26,2.70
2016,03,28,06,27,2.70
2016,03,28,06,28,2.70
2016,03,28,06,29,2.70
2016,03,28,06,30,2.70
2016,03,28,06,31,2.70
2016,03,28,06,32,2.70
2016,03,28,06,33,2.70
2016,03,28,06,34,2.70
2016,03,28,06,35,2.70
2016,03,28,06,36,2.70
2016,03,28,06,37,2.80
2016,03,28,06,38,2.80
2016,03,28,06,39,2.70
2016,03,28,06,40,2.70
2016,03,28,06,41,2.70
2016,03,28,06,42,2.70
2016,03,28,06,43,2.70
2016,03,28,06,44,2.70
2016,03,28,06,45,2.70
2016,03,28,06,46,2.80
2016,03,28,06,47,2.80
2016,03,28,06,48,2.80
2016,03,28,06,49,2.80
2016,03,28,06,50,2.80
2016,03,28,06,51,2.80
2016,03,28,06,52,2.80
2016,03,28,06,53,2.80
2016,03,28,06,54,2.80
2016,03,28,06,55,2.80
2016,03,28,06,56,2.80
2016,03,28,06,57,2.80
2016,03,28,06,58,2.80
2016,03,28,06,59,2.80
2016,03,28,07,00,2.80
2016,03,28,07,01,2.80
2016,03,28,07,02,2.80
2016,03,28,07,03,2.80
2016,03,28,07,04,2.70
2016,03,28,07,05,2.70
2016,03,28,07,06,2.70
2016,03,28,07,07,2.70
2016,03,28,07,08,2.70
2016,03,28,07,09,2.70
2016,03,28,07,10,2.70
2016,03,28,07,11,2.70
2016,03,28,07,12,2.80
2016,03,28,07,13,2.80
2016,03,28,07,14,2.80
2016,03,28,07,15,2.80
2016,03,28,07,16,2.80
2016,03,28,07,17,2.80
2016,03,28,07,18,2.80
2016,03,28,07,19,2.80
2016,03,28,07,20,2.80
2016,03,28,07,21,2.80
2016,03,28,07,22,2.80
2016,03,28,07,23,2.80
2016,03,28,07,24,2.80
2016,03,28,07,25,2.80
2016,03,28,07,26,2.70
2016,03,28,07,27,2.70
2016,03,28,07,28,2.80
2016,03,28,07,29,2.80
2016,03,28,07,30,2.80
2016,03,28,07,31,2.80
2016,03,28,07,32,2.80
2016,03,28,07,33,2.70
2016,03,28,07,34,2.70
2016,03,28,07,35,2.70
2016,03,28,07,36,2.70
2016,03,28,07,37,2.80
2016,03,28,07,38,2.80
2016,03,28,07,39,2.80
2016,03,28,07,40,2.80
2016,03,28,07,41,2.80
2016,03,28,07,42,2.80
2016,03,28,07,43,2.80
2016,03,28,07,44,2.80
2016,03,28,07,45,2.80
2016,03,28,07,46,2.80
2016,03,28,07,47,2.80
2016,03,28,07,48,2.80
2016,03,28,07,49,2.80
2016,03,28,07,50,2.80
2016,03,28,07,51,2.80
2016,03,28,07,52,2.80
2016,03,28,07,53,2.90
2016,03,28,07,54,2.90
2016,03,28,07,55,2.90
2016,03,28,07,56,2.90
2016,03,28,07,57,2.90
2016,03,28,07,58,2.90
2016,03,28,07,59,2.90
2016,03,28,08,00,2.90
2016,03,28,08,01,2.90
2016,03,28,08,02,2.90
2016,03,28,08,03,2.90
2016,03,28,08,04,2.90
2016,03,28,08,05,3.00
2016,03,28,08,06,3.00
2016,03,28,08,07,3.00
2016,03,28,08,08,3.00
2016,03,28,08,09,3.00
2016,03,28,08,10,3.00
2016,03,28,08,11,3.10
2016,03,28,08,12,3.10
2016,03,28,08,13,3.10
2016,03,28,08,14,3.10
2016,03,28,08,15,3.10
2016,03,28,08,16,3.10
2016,03,28,08,17,3.10
2016,03,28,08,18,3.10
2016,03,28,08,19,3.10
2016,03,28,08,20,3.20
2016,03,28,08,21,3.20
2016,03,28,08,22,3.20
2016,03,28,08,23,3.20
2016,03,28,08,24,3.20
2016,03,28,08,25,3.20
2016,03,28,08,26,3.30
2016,03,28,08,27,3.30
2016,03,28,08,28,3.40
2016,03,28,08,29,3.50
2016,03,28,08,30,3.60
2016,03,28,08,31,3.80
2016,03,28,08,32,3.80
2016,03,28,08,33,3.90
2016,03,28,08,34,3.90
2016,03,28,08,35,3.90
2016,03,28,08,36,4.00
2016,03,28,08,37,4.00
2016,03,28,08,38,4.00
2016,03,28,08,39,4.00
2016,03,28,08,40,4.00
2016,03,28,08,41,4.00
2016,03,28,08,42,4.00
2016,03,28,08,43,4.10
2016,03,28,08,44,4.10
2016,03,28,08,45,4.10
2016,03,28,08,46,4.20
2016,03,28,08,47,4.20
2016,03,28,08,48,4.30
2016,03,28,08,49,4.40
2016,03,28,08,50,4.50
2016,03,28,08,51,4.60
2016,03,28,08,52,4.80
2016,03,28,08,53,4.80
2016,03,28,08,54,4.90
2016,03,28,08,55,4.90
2016,03,28,08,56,4.90
2016,03,28,08,57,4.80
2016,03,28,08,58,4.80
2016,03,28,08,59,4.90
2016,03,28,09,00,4.90
2016,03,28,09,01,4.90
2016,03,28,09,02,4.90
2016,03,28,09,03,5.00
2016,03,28,09,04,5.00
2016,03,28,09,05,5.10
2016,03,28,09,06,5.10
2016,03,28,09,07,5.20
2016,03,28,09,08,5.20
2016,03,28,09,09,5.30
2016,03,28,09,10,5.30
2016,03,28,09,11,5.40
2016,03,28,09,12,5.40
2016,03,28,09,13,5.50
2016,03,28,09,14,5.50
2016,03,28,09,15,5.60
2016,03,28,09,16,5.60
2016,03,28,09,17,5.70
2016,03,28,09,18,5.80
2016,03,28,09,19,5.90
2016,03,28,09,20,6.00
2016,03,28,09,21,6.00
2016,03,28,09,22,6.10
2016,03,28,09,23,6.10
2016,03,28,09,24,6.20
2016,03,28,09,25,6.30
2016,03,28,09,26,6.40
2016,03,28,09,27,6.50
2016,03,28,09,28,6.60
2016,03,28,09,29,6.60
2016,03,28,09,30,6.60
2016,03,28,09,31,6.70
2016,03,28,09,32,6.70
2016,03,28,09,33,6.70
2016,03,28,09,34,6.70
2016,03,28,09,35,6.80
2016,03,28,09,36,6.90
2016,03,28,09,37,7.00
2016,03,28,09,38,7.00
2016,03,28,09,39,7.00
2016,03,28,09,40,7.00
2016,03,28,09,41,7.00
2016,03,28,09,42,6.90
2016,03,28,09,43,6.90
2016,03,28,09,44,6.90
2016,03,28,09,45,6.90
2016,03,28,09,46,6.90
2016,03,28,09,47,7.00
2016,03,28,09,48,7.00
2016,03,28,09,49,7.10
2016,03,28,09,50,7.20
2016,03,28,09,51,7.20
2016,03,28,09,52,7.30
2016,03,28,09,53,7.30
2016,03,28,09,54,7.40
2016,03,28,09,55,7.60
2016,03,28,09,56,7.70
2016,03,28,09,57,7.80
2016,03,28,09,58,7.90
2016,03,28,09,59,8.00
2016,03,28,10,00,8.20
2016,03,28,10,01,8.30
2016,03,28,10,02,8.40
2016,03,28,10,03,8.40
2016,03,28,10,04,8.50
2016,03,28,10,05,8.60
2016,03,28,10,06,8.70
2016,03,28,10,07,8.80
2016,03,28,10,08,8.80
2016,03,28,10,09,8.90
2016,03,28,10,10,8.90
2016,03,28,10,11,8.90
2016,03,28,10,12,8.90
2016,03,28,10,13,8.90
2016,03,28,10,14,8.90
2016,03,28,10,15,8.90
2016,03,28,10,16,8.90
2016,03,28,10,17,8.90
2016,03,28,10,18,9.00
2016,03,28,10,19,9.00
2016,03,28,10,20,9.00
2016,03,28,10,21,9.10
2016,03,28,10,22,9.10
2016,03,28,10,23,9.00
2016,03,28,10,24,9.00
2016,03,28,10,25,9.10
2016,03,28,10,26,9.20
2016,03,28,10,27,9.30
2016,03,28,10,28,9.40
2016,03,28,10,29,9.50
2016,03,28,10,30,9.60
2016,03,28,10,31,9.70
2016,03,28,10,32,9.80
2016,03,28,10,33,9.90
2016,03,28,10,34,9.90
2016,03,28,10,35,9.90
2016,03,28,10,36,10.00
2016,03,28,10,37,10.00
2016,03,28,10,38,10.10
2016,03,28,10,39,10.10
2016,03,28,10,40,10.10
2016,03,28,10,41,10.10
2016,03,28,10,42,10.20
2016,03,28,10,43,10.20
2016,03,28,10,44,10.20
2016,03,28,10,45,10.20
2016,03,28,10,46,10.20
2016,03,28,10,47,10.20
2016,03,28,10,48,10.20
2016,03,28,10,49,10.30
2016,03,28,10,50,10.30
2016,03,28,10,51,10.30
2016,03,28,10,52,10.20
2016,03,28,10,53,10.20
2016,03,28,10,54,10.20
2016,03,28,10,55,10.20
2016,03,28,10,56,10.30
2016,03,28,10,57,10.30
2016,03,28,10,58,10.30
2016,03,28,10,59,10.30
2016,03,28,11,00,10.30
2016,03,28,11,01,10.40
2016,03,28,11,02,10.40
2016,03,28,11,03,10.40
2016,03,28,11,04,10.40
2016,03,28,11,05,10.40
2016,03,28,11,06,10.50
2016,03,28,11,07,10.50
2016,03,28,11,08,10.60
2016,03,28,11,09,10.60
2016,03,28,11,10,10.70
2016,03,28,11,11,10.70
2016,03,28,11,12,10.70
2016,03,28,11,13,10.70
2016,03,28,11,14,10.80
2016,03,28,11,15,10.80
2016,03,28,11,16,10.80
2016,03,28,11,17,10.80
2016,03,28,11,18,10.80
2016,03,28,11,19,10.80
2016,03,28,11,20,10.90
2016,03,28,11,21,10.90
2016,03,28,11,22,10.90
2016,03,28,11,23,10.90
2016,03,28,11,24,10.90
2016,03,28,11,25,10.90
2016,03,28,11,26,10.90
2016,03,28,11,27,10.90
2016,03,28,11,28,10.90
2016,03,28,11,29,10.90
2016,03,28,11,30,10.80
2016,03,28,11,31,10.80
2016,03,28,11,32,10.80
2016,03,28,11,33,10.80
2016,03,28,11,34,10.90
2016,03,28,11,35,11.00
2016,03,28,11,36,11.00
2016,03,28,11,37,11.10
2016,03,28,11,38,11.10
2016,03,28,11,39,11.20
2016,03,28,11,40,11.20
2016,03,28,11,41,11.20
2016,03,28,11,42,11.20
2016,03,28,11,43,11.20
2016,03,28,11,44,11.20
2016,03,28,11,45,11.30
2016,03,28,11,46,11.30
2016,03,28,11,47,11.40
2016,03,28,11,48,11.40
2016,03,28,11,49,11.40
2016,03,28,11,50,11.40
2016,03,28,11,51,11.40
2016,03,28,11,52,11.40
2016,03,28,11,53,11.40
2016,03,28,11,54,11.40
2016,03,28,11,55,11.40
2016,03,28,11,56,11.40
2016,03,28,11,57,11.40
2016,03,28,11,58,11.40
2016,03,28,11,59,11.40
2016,03,28,12,00,11.50
2016,03,28,12,01,11.50
2016,03,28,12,02,11.50
2016,03,28,12,03,11.50
2016,03,28,12,04,11.60
2016,03,28,12,05,11.60
2016,03,28,12,06,11.60
2016,03,28,12,07,11.60
2016,03,28,12,08,11.50
2016,03,28,12,09,11.50
2016,03,28,12,10,11.60
2016,03,28,12,11,11.60
2016,03,28,12,12,11.60
2016,03,28,12,13,11.70
2016,03,28,12,14,11.70
2016,03,28,12,15,11.80
2016,03,28,12,16,11.90
2016,03,28,12,17,11.90
2016,03,28,12,18,12.00
2016,03,28,12,19,12.10
2016,03,28,12,20,12.10
2016,03,28,12,21,12.20
2016,03,28,12,22,12.30
2016,03,28,12,23,12.30
2016,03,28,12,24,12.40
2016,03,28,12,25,12.50
2016,03,28,12,26,12.70
2016,03,28,12,27,12.70
2016,03,28,12,28,12.70
2016,03,28,12,29,12.70
2016,03,28,12,30,12.70
2016,03,28,12,31,12.70
2016,03,28,12,32,12.60
2016,03,28,12,33,12.60
2016,03,28,12,34,12.60
2016,03,28,12,35,12.60
2016,03,28,12,36,12.60
2016,03,28,12,37,12.60
2016,03,28,12,38,12.60
2016,03,28,12,39,12.70
2016,03,28,12,40,12.70
2016,03,28,12,41,12.70
2016,03,28,12,42,12.70
2016,03,28,12,43,12.70
2016,03,28,12,44,12.70
2016,03,28,12,45,12.70
2016,03,28,12,46,12.70
2016,03,28,12,47,12.70
2016,03,28,12,48,12.60
2016,03,28,12,49,12.60
2016,03,28,12,50,12.60
2016,03,28,12,51,12.70
2016,03,28,12,52,12.70
2016,03,28,12,53,12.70
2016,03,28,12,54,12.70
2016,03,28,12,55,12.60
2016,03,28,12,56,12.60
2016,03,28,12,57,12.60
2016,03,28,12,58,12.70
2016,03,28,12,59,12.70
2016,03,28,13,00,12.90
2016,03,28,13,01,12.90
2016,03,28,13,02,13.00
2016,03,28,13,03,13.10
2016,03,28,13,04,13.10
2016,03,28,13,05,13.10
2016,03,28,13,06,13.00
2016,03,28,13,07,13.00
2016,03,28,13,08,13.00
2016,03,28,13,09,13.00
2016,03,28,13,10,12.90
2016,03,28,13,11,12.70
2016,03,28,13,12,12.70
2016,03,28,13,13,12.70
2016,03,28,13,14,12.60
2016,03,28,13,15,12.50
2016,03,28,13,16,12.50
2016,03,28,13,17,12.60
2016,03,28,13,18,12.60
2016,03,28,13,19,12.70
2016,03,28,13,20,12.70
2016,03,28,13,21,12.80
2016,03,28,13,22,12.80
2016,03,28,13,23,12.90
2016,03,28,13,24,12.80
2016,03,28,13,25,12.80
2016,03,28,13,26,12.80
2016,03,28,13,27,12.80
2016,03,28,13,28,12.90
2016,03,28,13,29,12.90
2016,03,28,13,30,13.00
2016,03,28,13,31,13.00
2016,03,28,13,32,12.90
2016,03,28,13,33,12.80
2016,03,28,13,34,12.80
2016,03,28,13,35,12.90
2016,03,28,13,36,12.90
2016,03,28,13,37,13.00
2016,03,28,13,38,13.00
2016,03,28,13,39,13.00
2016,03,28,13,40,13.00
2016,03,28,13,41,13.00
2016,03,28,13,42,13.00
2016,03,28,13,43,13.00
2016,03,28,13,44,13.00
2016,03,28,13,45,12.90
2016,03,28,13,46,12.80
2016,03,28,13,47,12.80
2016,03,28,13,48,12.80
2016,03,28,13,49,12.90
2016,03,28,13,50,12.90
2016,03,28,13,51,13.00
2016,03,28,13,52,13.10
2016,03,28,13,53,13.00
2016,03,28,13,54,13.00
2016,03,28,13,55,12.90
2016,03,28,13,56,12.90
2016,03,28,13,57,12.90
2016,03,28,13,58,12.90
2016,03,28,13,59,12.80
2016,03,28,14,00,12.90
2016,03,28,14,01,13.00
2016,03,28,14,02,13.10
2016,03,28,14,03,13.20
2016,03,28,14,04,13.20
2016,03,28,14,05,13.20
2016,03,28,14,06,13.20
2016,03,28,14,07,13.20
2016,03,28,14,08,13.20
2016,03,28,14,09,13.20
2016,03,28,14,10,13.20
2016,03,28,14,11,13.20
2016,03,28,14,12,13.20
2016,03,28,14,13,13.20
2016,03,28,14,14,13.30
2016,03,28,14,15,13.40
2016,03,28,14,16,13.40
2016,03,28,14,17,13.40
2016,03,28,14,18,13.40
2016,03,28,14,19,13.30
2016,03,28,14,20,13.30
2016,03,28,14,21,13.30
2016,03,28,14,22,13.30
2016,03,28,14,23,13.30
2016,03,28,14,24,13.30
2016,03,28,14,25,13.30
2016,03,28,14,26,13.40
2016,03,28,14,27,13.40
2016,03,28,14,28,13.40
2016,03,28,14,29,13.40
2016,03,28,14,30,13.40
2016,03,28,14,31,13.40
2016,03,28,14,32,13.40
2016,03,28,14,33,13.40
2016,03,28,14,34,13.40
2016,03,28,14,35,13.50
2016,03,28,14,36,13.50
2016,03,28,14,37,13.60
2016,03,28,14,38,13.60
2016,03,28,14,39,13.70
2016,03,28,14,40,13.80
2016,03,28,14,41,13.90
2016,03,28,14,42,13.80
2016,03,28,14,43,13.80
2016,03,28,14,44,13.80
2016,03,28,14,45,13.80
2016,03,28,14,46,13.80
2016,03,28,14,47,13.90
2016,03,28,14,48,13.90
2016,03,28,14,49,13.90
2016,03,28,14,50,13.90
2016,03,28,14,51,13.90
2016,03,28,14,52,13.90
2016,03,28,14,53,13.90
2016,03,28,14,54,13.90
2016,03,28,14,55,13.90
2016,03,28,14,56,13.90
2016,03,28,14,57,13.90
2016,03,28,14,58,14.00
2016,03,28,14,59,14.00
2016,03,28,15,00,14.00
2016,03,28,15,01,13.90
2016,03,28,15,02,13.90
2016,03,28,15,03,13.90
2016,03,28,15,04,14.00
2016,03,28,15,05,14.10
2016,03,28,15,06,14.20
2016,03,28,15,07,14.30
2016,03,28,15,08,14.30
2016,03,28,15,09,14.20
2016,03,28,15,10,14.30
2016,03,28,15,11,14.30
2016,03,28,15,12,14.20
2016,03,28,15,13,14.20
2016,03,28,15,14,14.00
2016,03,28,15,15,13.90
2016,03,28,15,16,13.80
2016,03,28,15,17,13.80
2016,03,28,15,18,13.80
2016,03,28,15,19,13.70
2016,03,28,15,20,13.80
2016,03,28,15,21,14.00
2016,03,28,15,22,14.10
2016,03,28,15,23,14.10
2016,03,28,15,24,14.20
2016,03,28,15,25,14.20
2016,03,28,15,26,14.10
2016,03,28,15,27,14.20
2016,03,28,15,28,14.20
2016,03,28,15,29,14.20
2016,03,28,15,30,14.20
2016,03,28,15,31,14.20
2016,03,28,15,32,14.20
2016,03,28,15,33,14.20
2016,03,28,15,34,14.20
2016,03,28,15,35,14.20
2016,03,28,15,36,14.10
2016,03,28,15,37,14.10
2016,03,28,15,38,14.10
2016,03,28,15,39,14.10
2016,03,28,15,40,14.10
2016,03,28,15,41,14.10
2016,03,28,15,42,14.10
2016,03,28,15,43,14.10
2016,03,28,15,44,14.20
2016,03,28,15,45,14.20
2016,03,28,15,46,14.20
2016,03,28,15,47,14.30
2016,03,28,15,48,14.30
2016,03,28,15,49,14.40
2016,03,28,15,50,14.40
2016,03,28,15,51,14.30
2016,03,28,15,52,14.30
2016,03,28,15,53,14.40
2016,03,28,15,54,14.40
2016,03,28,15,55,14.50
2016,03,28,15,56,14.40
2016,03,28,15,57,14.50
2016,03,28,15,58,14.50
2016,03,28,15,59,14.50
2016,03,28,16,00,14.40
2016,03,28,16,01,14.40
2016,03,28,16,02,14.50
2016,03,28,16,03,14.40
2016,03,28,16,04,14.40
2016,03,28,16,05,14.40
2016,03,28,16,06,14.40
2016,03,28,16,07,14.40
2016,03,28,16,08,14.40
2016,03,28,16,09,14.50
2016,03,28,16,10,14.60
2016,03,28,16,11,14.60
2016,03,28,16,12,14.60
2016,03,28,16,13,14.70
2016,03,28,16,14,14.70
2016,03,28,16,15,14.80
2016,03,28,16,16,14.80
2016,03,28,16,17,14.80
2016,03,28,16,18,14.80
2016,03,28,16,19,14.80
2016,03,28,16,20,14.80
2016,03,28,16,21,14.80
2016,03,28,16,22,14.80
2016,03,28,16,23,14.80
2016,03,28,16,24,14.90
2016,03,28,16,25,14.90
2016,03,28,16,26,14.80
2016,03,28,16,27,14.80
2016,03,28,16,28,14.70
2016,03,28,16,29,14.70
2016,03,28,16,30,14.70
2016,03,28,16,31,14.70
2016,03,28,16,32,14.70
2016,03,28,16,33,14.70
2016,03,28,16,34,14.70
2016,03,28,16,35,14.80
2016,03,28,16,36,14.80
2016,03,28,16,37,14.80
2016,03,28,16,38,14.80
2016,03,28,16,39,14.90
2016,03,28,16,40,14.80
2016,03,28,16,41,14.80
2016,03,28,16,42,14.70
2016,03,28,16,43,14.70
2016,03,28,16,44,14.80
2016,03,28,16,45,14.80
2016,03,28,16,46,14.80
2016,03,28,16,47,14.80
2016,03,28,16,48,14.90
2016,03,28,16,49,15.00
2016,03,28,16,50,15.00
2016,03,28,16,51,15.00
2016,03,28,16,52,14.90
2016,03,28,16,53,14.90
2016,03,28,16,54,14.90
2016,03,28,16,55,14.90
2016,03,28,16,56,14.90
2016,03,28,16,57,15.00
2016,03,28,16,58,15.00
2016,03,28,16,59,15.00
2016,03,28,17,00,15.00
2016,03,28,17,01,15.00
2016,03,28,17,02,15.00
2016,03,28,17,03,15.00
2016,03,28,17,04,14.90
2016,03,28,17,05,14.90
2016,03,28,17,06,14.90
2016,03,28,17,07,14.90
2016,03,28,17,08,14.90
2016,03,28,17,09,15.00
2016,03,28,17,10,15.00
2016,03,28,17,11,15.00
2016,03,28,17,12,15.00
2016,03,28,17,13,15.00
2016,03,28,17,14,15.00
2016,03,28,17,15,15.00
2016,03,28,17,16,15.00
2016,03,28,17,17,15.00
2016,03,28,17,18,15.10
2016,03,28,17,19,15.10
2016,03,28,17,20,15.10
2016,03,28,17,21,15.20
2016,03,28,17,22,15.20
2016,03,28,17,23,15.20
2016,03,28,17,24,15.20
2016,03,28,17,25,15.30
2016,03,28,17,26,15.30
2016,03,28,17,27,15.30
2016,03,28,17,28,15.30
2016,03,28,17,29,15.30
2016,03,28,17,30,15.30
2016,03,28,17,31,15.20
2016,03,28,17,32,15.10
2016,03,28,17,33,15.10
2016,03,28,17,34,15.00
2016,03,28,17,35,15.00
2016,03,28,17,36,15.00
2016,03,28,17,37,15.00
2016,03,28,17,38,15.10
2016,03,28,17,39,15.10
2016,03,28,17,40,15.10
2016,03,28,17,41,15.10
2016,03,28,17,42,15.00
2016,03,28,17,43,14.90
2016,03,28,17,44,14.90
2016,03,28,17,45,14.90
2016,03,28,17,46,14.90
2016,03,28,17,47,14.90